DELTA 1 DEB, 21372

Orbit data source: Space-Track

DELTA 1 DEB, 21372 is space debris in SSO originally from a launch on Thu, 12 Jun 1975 UTC launched from the Air Force Western Test Range (AFWTR). Debris objects in space refer to the collection of defunct objects orbiting the Earth. Examples of debris include non-operational satellites, rocket bodies, and fragments generated from explosions, collisions, or faulty payload assembly.

Loading next visibility...
Identifier
21372, 1975-052CS
Orbit
SSO
Country
Flag of USUS
Related business
Manufacturer
Unknown
Mission
Spacecraft
Bus & Motor
Unknown
Mass
Unknown
Launch date (UTC)
1975-06-12 (51 years ago)
Launch vehicle
Unknown
Launch site
Air Force Western Test Range (AFWTR)
Object type
Payload
Rocket body
Debris
Shape & HBR
Unknown shape, 0.1 m
Radar Cross Section
Medium (>0.1 m² and <1 m²)

Expand to show TLE details & history
Last TLE update: 9 hours ago

TLE from 9 hours ago
0 DELTA 1 DEB
1 21372U 75052CS  26168.97144856  .00000056  00000-0  20405-3 0  9996
2 21372 100.2091  74.6355 0060627 295.1968 127.5732 13.33602139706260
Epoch: 2026-06-17T23:18Z
TLE epoch observation values (Epoch: 2026-06-17T23:18:53.155Z)
Latitude
61.65735°
Longitude
159.29154°
Altitude
1,171.598 km
Speed
7.26 km/s
True Right ascension
03h 40m 56s
True Declination
61° 31' 17"
Sunlit
Object was in daylight at epoch
Visualization orbit readout
Latitude
Unknown
Longitude
Unknown
Altitude
Unknown
Speed
Unknown
Apparent Right ascension
Unknown
Apparent Declination
Unknown
Sunlit
N/A
Visualization observer readout
Local Sidereal Time
18:48:57
Azimuth
Unknown
Elevation
Unknown
Doppler factor
Unknown
Orbital elements
Apogee altitude
1,176.08 km
Perigee altitude
1,085.034 km
Semi-major axis
7,508.694 km
Eccentricity
0.00606
Inclination
100.2091°
RAAN
74.6355°
Arg. of periapsis
295.1968°
True anomaly
128.12129°
Mean anomaly
127.5732°
Eccentric anomaly
127.8475°
Mean motion
3.33577 °/min
Orbital period
107.92 mins
BSTAR
0.00020405
Loading maneuver chart data...
Computing Atmospheric mass density...
Loading historical data...
Loading historical data...
Loading historical data...
Loading historical data...
Loading historical data...
Loading historical data...
Loading historical data...

Documentation

Showing up to 5 results
|